Regional Weather Roundup
Issued by NWS

Home | Current Version | Previous Version | Graphics & Text | Print | Product List | Glossary On
Versions: 1 2 3 4 5 6 7 8 9 10 11 12 13 14 15 16 17 18 19 20 21 22 23 24 25 26 27 28 29 30 31 32 33 34 35 36 37 38 39 40 41 42 43 44 45 46 47 48 49 50
850
ASUS43 KOAX 230710
RWRNE

WEATHER ROUNDUP FOR NEBRASKA
NATIONAL WEATHER SERVICE OMAHA NE
100 AM CST THU NOV 23 2017

NOTES: SATELLITE DATA IS BEING USED TO AUGMENT CLOUD COVER ABOVE
       12000 FEET.
       "FAIR" INDICATES FEW OR NO CLOUDS BELOW 12,000 FEET WITH NO
       SIGNIFICANT WEATHER AND/OR OBSTRUCTIONS TO VISIBILITY.


NEZ001>004-019>022-054>056-230800-
NEBRASKA PANHANDLE

CITY           SKY/WX    TMP DP  RH WIND       PRES   REMARKS
SCOTTSBLUFF    CLOUDY    39  34  82 NW7       30.18S WCI  34
ALLIANCE       CLEAR     36  34  92 W6        30.15F WCI  31
CHADRON        CLEAR     39  36  89 S5        30.12S
GORDON         FAIR      33  30  88 CALM      30.10S
KIMBALL        CLOUDY    47  39  72 NW12      30.21S
SIDNEY         CLOUDY    48  39  71 NW13      30.19S
$$

NEZ057>060-069>072-079>082-230800-
SOUTHWEST NEBRASKA

CITY           SKY/WX    TMP DP  RH WIND       PRES   REMARKS
NORTH PLATTE   CLEAR     33  31  92 W5        30.11S WCI  29
IMPERIAL       CLOUDY    46  39  76 NW12      30.14R
LEXINGTON      CLEAR     36  32  86 W7        30.08F WCI  30
MCCOOK         CLOUDY    42  36  79 W7        30.09F
OGALLALA       CLEAR     51  40  68 NW17      30.13S
$$

NEZ005>010-023>029-035>040-094-230800-
NORTH CENTRAL NEBRASKA

CITY           SKY/WX    TMP DP  RH WIND       PRES   REMARKS
VALENTINE      CLEAR     39  35  86 SW7       30.05F WCI  34
AINSWORTH      CLEAR     42  37  81 W8        30.05F
BROKEN BOW     CLEAR     46  35  65 CALM      30.06F
O`NEILL        CLEAR     42  37  79 W6        30.02F
ORD            CLEAR     35  30  82 NW3       30.03F
THEDFORD       PTCLDY    37  34  87 CALM      30.10S
$$

NEZ041-046>049-061>064-073>077-083>087-230800-
SOUTH CENTRAL NEBRASKA

CITY           SKY/WX    TMP DP  RH WIND       PRES   REMARKS
GRAND ISLAND   CLEAR     41  33  73 W10       30.04S
AURORA         CLEAR     39  29  68 W7        30.02S WCI  34
HASTINGS       CLEAR     41  30  65 W9        30.04F
HEBRON         CLEAR     40  23  50 W8        30.03F WCI  35
HOLDREGE       CLEAR     42  34  73 NW9       30.07S
KEARNEY        CLEAR     41  34  76 NW8       30.06S
YORK           CLEAR     39  28  65 W12       30.01F WCI  32
$$

NEZ011>018-030>034-042>045-230800-
NORTHEAST NEBRASKA

CITY           SKY/WX    TMP DP  RH WIND       PRES   REMARKS
NORFOLK        CLEAR     34  28  79 W5        29.99R WCI  30
ALBION         CLEAR     37  31  79 NW3       30.02R
BLAIR          CLEAR     35  23  61 SW8       29.98F WCI  28
COLUMBUS       CLEAR     39  27  62 W9        30.00F WCI  33
FREMONT        CLEAR     37  24  57 SW3       29.99S
TEKAMAH        CLEAR     32  20  61 SE12      29.98F WCI  23
WAYNE          CLEAR     40  28  62 W5        29.97S
$$

NEZ050>053-065>068-078-088>093-230800-
SOUTHEAST NEBRASKA

CITY           SKY/WX    TMP DP  RH WIND       PRES   REMARKS
LINCOLN        CLEAR     36  22  56 CALM      30.03F
OMAHA EPPLEY   CLEAR     31  20  63 SE9       30.00F WCI  23
BEATRICE       CLEAR     36  23  58 S6        30.03S WCI  31
FALLS CITY     CLEAR     33  21  61 S6        30.04F WCI  28
NEBRASKA CITY  CLEAR     31  22  71 SW6       30.01F WCI  25
PLATTSMOUTH    CLEAR     31  21  66 S7        30.00F WCI  25
$$

NEZ044-045-051>053-067-230800-
OMAHA AREA

CITY           SKY/WX    TMP DP  RH WIND       PRES   REMARKS
OMAHA EPPLEY   CLEAR     31  20  63 SE9       30.00F WCI  23
BLAIR          CLEAR     35  23  61 SW8       29.98F WCI  28
FREMONT        CLEAR     37  24  57 SW3       29.99S
MILLARD        CLEAR     33  22  64 SE3       30.00F
OFFUTT AFB     CLEAR     28  20  72 SE3       30.00F
PLATTSMOUTH    CLEAR     31  21  66 S7        30.00F WCI  25
WAHOO          FAIR      32  21  64 SE3       29.99F
$$




USA.gov is the U.S. government's official web portal to all federal, state and local government web resources and services.